Location: Richterswil
(47.2055°N, 8.7071°E)
Time: 07:32:30
(UTC+00:00)

ADEOS II - Pass Details

Date: 07 June 2020
Orbit: 800 x 801 km, 98.5° (Epoch: 04 July)

Event Time Altitude Azimuth Distance (km) Brightness Sun altitude
Rises 01:02:51 0° 22° (NNE) 3,320 7.1 -16.6°
Reaches altitude 10° 01:05:28 10° 33° (NNE) 2,384 5.9 -16.4°
Maximum altitude 01:10:07 31° 95° (E) 1,378 3.5 -16.0°
Enters shadow 01:14:40 10° 157° (SSE) 2,349 4.1 -15.7°
